Location: Astronomy Club of Akron Observatory
(40.9700°N, 81.5606°W)
Time: 06:59:43
(UTC-05:00)

Cosmos 1441 Rocket - Visible Passes

Search period start: 23 November 2014 00:00
Search period end: 03 December 2014 00:00
Orbit: 507 x 555 km, 81.1° (Epoch: 23 November)

Date Brightness Start Highest point End Pass type
(mag) Time Alt. Az. Time Alt. Az. Time Alt. Az.
23 Nov 4.6 18:18:54 10° NNE 18:20:56 21° NE 18:20:56 21° NE visible
23 Nov 6.0 19:55:21 10° NW 19:56:26 15° NW 19:56:26 15° NW visible
24 Nov 4.2 18:08:42 10° NNE 18:11:57 25° ENE 18:15:09 10° SE visible
24 Nov 5.7 19:45:02 10° NW 19:47:59 21° W 19:50:53 10° SW visible
25 Nov 4.3 17:58:28 10° NNE 18:01:40 23° ENE 18:04:47 10° SE visible
25 Nov 5.7 19:34:42 10° NW 19:37:43 22° W 19:40:41 10° SW visible
26 Nov 4.4 17:48:15 10° NNE 17:51:22 22° ENE 17:54:26 10° SE visible
26 Nov 5.6 19:24:23 10° NW 19:27:27 23° W 19:30:29 10° SW visible
27 Nov 4.4 17:38:02 10° NNE 17:41:04 21° ENE 17:44:03 10° ESE visible
27 Nov 5.6 19:14:03 10° NW 19:17:11 24° W 19:20:16 10° SW visible
28 Nov 4.5 17:27:48 10° NNE 17:30:45 20° ENE 17:33:40 10° ESE visible
28 Nov 5.5 19:03:42 10° NW 19:06:54 25° W 19:10:02 10° SSW visible
29 Nov 5.5 18:53:22 10° NW 18:56:36 26° W 18:59:48 10° SSW visible
30 Nov 5.4 18:43:01 10° NNW 18:46:18 27° W 18:49:33 10° SSW visible
01 Dec 3.4 06:58:52 10° S 07:02:55 88° E 07:06:57 10° N visible
01 Dec 5.4 18:32:40 10° NNW 18:36:00 28° W 18:39:17 10° SSW visible
02 Dec 3.4 06:48:34 10° S 06:52:36 84° E 06:56:38 10° N visible
02 Dec 5.3 18:22:19 10° NNW 18:25:41 30° W 18:29:01 10° SSW visible
